GFSMA_700_spd_078.txt.gz
Wind_Speed
23 25 23 24 35 33 30 27 25 25 24 24 21 20 19 16 17 17 18 17 15 12 11 10 9 9 11 11 11 9 7 6 5 4 3 2 2 2 3 3 4 4 4
23 30 24 35 41 34 31 28 25 25 23 23 21 19 19 18 18 18 17 16 14 13 12 11 11 11 12 12 10 8 7 6 5 4 3 3 3 4 5 6 6 6 5
27 27 31 28 42 36 33 31 28 25 26 24 20 21 18 19 19 18 17 17 15 14 13 13 13 13 14 13 10 8 7 6 5 4 4 5 6 7 8 8 8 7 8
32 34 37 27 42 38 35 32 29 29 27 24 23 25 22 21 21 17 18 19 18 16 15 14 15 16 15 13 10 9 7 7 6 6 7 8 9 9 7 8 9 9 11
38 40 38 30 41 39 36 33 29 29 28 28 25 23 21 19 19 19 20 20 19 17 17 14 14 14 15 13 12 10 9 8 7 8 7 7 8 8 8 10 11 12 13
29 40 38 36 40 40 37 35 31 31 28 28 26 24 23 22 21 21 22 21 20 19 18 17 16 16 14 14 14 12 10 9 9 9 7 7 8 9 10 11 9 10 12
31 43 35 43 39 38 36 35 34 34 33 32 28 29 28 25 24 23 24 23 22 21 20 19 18 19 18 18 16 14 12 12 12 12 11 9 10 12 12 10 11 13 14
23 34 36 42 38 37 37 38 36 36 34 32 31 28 27 27 25 24 23 25 25 23 20 20 21 20 19 18 17 18 16 15 15 15 15 15 14 14 15 15 14 16 18
18 26 44 38 36 35 38 38 36 36 35 33 32 29 30 29 24 25 24 24 26 26 25 25 24 23 21 21 21 21 19 19 19 19 18 19 18 18 18 19 20 21 23
25 18 37 36 38 38 38 36 36 35 33 32 32 31 30 28 26 28 26 26 25 25 28 28 30 27 25 25 25 24 24 24 23 24 24 24 24 23 22 24 22 23 24
17 23 21 38 38 37 35 35 35 34 32 33 32 30 30 32 33 30 25 25 28 26 27 35 34 31 25 30 29 27 27 27 27 28 28 27 29 28 27 27 26 26 27
22 22 27 26 28 37 41 37 36 35 35 39 35 34 31 31 31 29 29 34 31 33 30 28 34 33 30 32 30 29 29 30 30 30 31 31 31 32 32 32 32 33 34
21 26 27 31 34 32 30 33 40 46 43 40 44 37 34 34 31 27 29 30 31 34 39 42 32 32 32 30 31 33 28 27 28 30 33 35 35 36 36 36 35 37 38
18 21 29 28 30 29 28 25 27 31 37 39 43 44 45 36 40 39 33 31 33 39 43 45 40 31 33 34 33 32 32 31 35 35 36 34 35 39 41 41 43 41 43
11 22 23 26 29 28 33 28 32 32 29 41 40 37 43 43 41 39 41 35 35 41 49 45 41 33 36 40 40 40 40 39 41 41 39 41 43 41 42 46 48 48 46
7 18 22 20 20 21 19 20 27 23 31 36 37 40 37 47 45 42 42 45 43 39 44 42 40 33 34 33 42 41 41 42 42 44 45 44 46 46 47 47 46 48 52
8 11 16 18 16 16 18 22 23 25 29 31 31 37 42 43 35 38 42 42 42 41 49 51 48 47 46 39 35 40 42 39 46 45 46 47 49 49 49 48 49 51 51
5 8 15 18 21 20 20 23 24 26 25 27 28 30 30 31 36 36 37 40 43 45 50 54 48 49 48 45 48 42 43 44 49 48 48 48 50 49 49 48 50 52 50
8 8 10 14 20 19 25 24 27 26 29 32 33 30 30 29 36 37 41 42 48 52 57 60 57 50 54 51 48 49 49 52 51 47 46 46 47 47 49 49 51 52 53
12 12 13 14 16 19 21 25 28 27 35 35 30 34 37 39 42 36 38 50 51 53 51 54 55 51 50 50 56 51 48 45 47 48 49 49 49 48 49 49 50 51 54
18 19 19 18 19 21 22 23 26 28 31 33 36 37 37 36 35 37 46 45 48 50 52 55 59 59 59 54 51 49 54 51 54 53 53 54 51 50 51 51 52 53 54
13 14 16 20 23 25 26 26 27 29 31 32 33 35 37 40 42 44 46 47 50 55 58 58 58 58 58 57 54 55 56 57 59 55 58 57 57 56 56 56 52 53 58
19 21 22 22 21 25 25 26 29 32 34 35 35 37 40 42 43 45 47 49 51 53 57 59 62 63 63 63 62 62 62 62 64 63 62 63 64 63 65 64 61 64 68
29 27 28 28 30 37 36 37 33 33 32 30 31 34 36 39 41 45 49 50 50 52 59 58 58 60 64 66 65 63 62 62 64 67 69 69 72 72 70 72 70 76 77
32 34 35 35 36 39 41 43 44 43 42 41 45 49 51 53 56 50 52 47 50 52 56 59 56 61 61 63 62 60 60 60 65 72 72 75 78 81 79 80 76 81 76
29 30 32 34 37 40 43 44 43 42 42 42 43 44 48 54 55 55 56 55 56 57 63 65 68 68 69 72 74 64 69 72 66 73 78 78 75 68 65 62 60 56 54

GFSMA_700_spd_081.txt.gz
Wind_Speed
21 23 25 20 26 34 34 30 26 26 26 26 24 21 19 18 16 13 15 16 14 13 12 12 12 12 12 12 12 11 11 10 10 9 7 6 5 4 3 3 2 2 3
21 24 24 24 24 37 35 28 27 26 26 25 23 21 20 17 16 17 17 16 16 14 13 13 13 13 14 14 13 11 11 11 10 8 7 6 6 5 5 4 4 4 5
23 25 25 29 27 18 33 32 30 29 27 26 25 22 20 18 17 15 17 19 17 15 15 16 15 15 15 15 14 12 11 10 10 8 7 8 8 7 7 8 7 7 7
24 25 27 32 24 30 33 34 30 30 30 28 26 23 20 19 16 18 19 18 16 17 16 16 14 14 15 16 15 12 11 11 10 9 10 10 10 10 10 10 9 8 9
24 26 35 32 31 26 35 34 33 30 30 28 26 24 22 21 17 18 19 19 18 18 18 17 17 18 18 17 14 13 14 13 12 11 11 11 12 10 10 10 11 9 11
25 25 41 34 37 31 40 38 34 33 32 29 28 25 22 20 21 21 21 21 20 19 19 19 19 19 19 18 16 16 15 14 13 14 12 12 12 11 10 11 12 12 10
28 33 45 39 38 33 42 39 33 34 34 32 29 28 25 26 23 23 22 19 20 20 20 19 20 20 19 19 18 17 17 16 16 15 13 13 13 13 13 13 13 13 14
23 29 39 43 41 37 44 40 35 36 33 31 31 29 29 29 27 25 22 22 25 24 21 20 20 20 20 20 19 19 19 19 18 17 17 16 16 15 15 15 16 17 17
27 29 32 30 35 42 43 38 37 36 31 33 31 34 33 31 25 25 23 22 24 26 27 27 25 22 23 23 23 22 22 22 21 20 20 19 20 19 19 19 19 20 22
12 17 35 36 38 42 38 35 34 36 33 32 34 34 32 29 24 24 22 21 22 24 25 25 27 31 32 29 30 27 25 25 25 25 25 25 25 23 24 25 25 25 25
7 10 20 36 43 38 36 36 35 35 32 33 32 30 30 30 29 25 22 20 24 24 22 24 25 26 26 29 33 29 28 31 29 30 29 30 30 30 28 28 28 27 27
9 9 9 20 37 41 40 37 34 33 32 31 31 31 31 30 28 26 23 27 29 26 22 26 31 35 37 39 37 34 31 34 34 32 33 34 35 34 33 32 32 33 33
16 16 14 19 23 33 35 38 38 39 38 36 36 37 40 41 36 41 32 32 29 29 28 36 39 39 45 35 41 48 38 39 35 38 37 37 37 37 36 37 38 38 38
12 22 21 25 24 23 19 27 26 42 44 39 39 40 39 43 45 39 35 38 32 33 33 34 37 39 41 41 41 38 44 44 42 41 37 37 37 38 39 38 40 41 43
9 17 18 14 29 28 26 25 16 15 24 27 28 45 48 42 42 35 34 38 36 43 46 44 41 44 44 44 39 40 43 38 42 37 42 42 42 44 44 45 45 44 45
6 14 13 11 15 24 18 28 25 20 22 25 23 31 38 41 36 36 40 41 44 49 47 42 46 45 44 46 37 29 35 35 36 45 48 49 50 49 49 51 52 52 51
5 8 15 17 17 16 16 24 17 20 19 26 20 24 34 41 48 42 42 43 57 45 51 53 48 43 43 41 41 41 38 40 37 35 42 47 47 52 54 54 54 55 56
2 4 8 14 19 18 17 17 24 22 19 22 20 23 25 32 29 38 38 42 43 37 41 43 38 42 46 45 46 48 46 47 45 41 43 44 48 51 52 56 57 56 57
5 4 5 10 13 15 18 20 21 25 23 23 26 29 29 29 32 31 32 34 35 37 41 44 42 41 46 52 52 52 47 49 52 49 50 52 49 55 55 55 56 57 57
8 9 9 11 13 17 20 22 20 23 24 23 27 28 30 34 37 35 35 38 39 39 43 48 48 49 51 50 50 49 48 48 48 50 52 49 49 50 52 55 56 56 55
13 14 14 14 15 18 18 18 19 19 22 24 25 27 29 32 33 34 36 37 39 42 47 51 55 53 50 49 47 49 59 58 56 53 52 53 51 52 55 58 59 59 58
8 9 11 13 17 21 21 21 22 22 23 25 27 29 31 33 34 36 38 41 45 51 54 56 58 61 62 61 58 57 58 59 62 57 58 59 59 59 59 60 60 60 58
11 13 14 16 21 22 20 18 15 17 19 21 23 25 29 33 35 37 37 39 41 43 49 50 54 56 59 60 61 61 61 61 62 65 63 62 64 64 68 68 67 66 66
25 27 28 26 25 25 25 25 26 27 30 36 41 41 41 43 42 41 41 42 44 46 47 46 48 51 54 55 55 55 56 60 62 64 65 67 67 70 72 72 71 71 74
29 32 37 39 36 35 35 33 33 34 36 38 40 41 43 45 47 45 44 49 52 55 55 57 61 57 62 67 62 64 63 65 65 67 72 73 69 67 66 68 71 74 77
29 31 31 31 33 35 36 36 36 37 37 37 39 41 43 45 48 46 45 54 51 56 58 56 58 63 62 66 65 69 67 70 70 71 68 69 71 63 60 59 57 56 55

GFSMA_700_spd_084.txt.gz
Wind_Speed
27 24 23 26 20 17 30 36 33 29 27 26 26 24 23 20 19 18 19 18 15 13 13 12 13 13 13 14 13 14 13 13 12 12 11 10 9 9 8 8 8 7 8
26 24 24 25 24 15 25 39 33 29 28 28 26 24 22 22 19 20 20 18 15 15 15 14 14 14 15 15 15 15 16 15 13 11 10 10 10 10 9 9 8 8 9
25 24 23 24 25 15 29 36 35 30 30 27 27 24 23 20 19 22 19 16 15 17 15 16 16 16 16 16 16 17 17 16 15 13 12 11 11 11 10 10 11 11 11
25 25 25 26 26 21 26 31 31 31 30 29 29 27 24 21 21 20 19 17 17 17 17 18 17 17 18 18 18 17 16 16 16 14 13 13 13 14 13 13 14 14 13
24 25 26 28 28 31 28 20 35 32 33 31 30 28 26 24 24 21 20 17 18 19 19 20 19 19 20 20 20 19 17 16 16 15 15 15 16 15 15 15 14 14 15
25 27 28 31 29 35 31 29 40 31 33 33 31 29 27 26 23 20 21 19 21 20 20 21 20 21 21 21 21 20 18 17 17 16 16 16 16 16 15 16 16 16 16
28 29 31 34 35 39 33 29 37 36 35 34 32 33 29 27 24 22 23 19 20 21 21 20 21 22 22 22 21 21 20 20 19 18 18 17 17 17 17 17 17 16 16
29 32 36 40 37 44 34 34 39 34 36 35 34 31 30 29 27 22 22 18 23 24 24 20 20 20 21 22 22 22 21 21 20 19 19 19 20 20 20 19 18 18 18
26 30 30 37 33 44 40 34 39 38 38 37 36 34 34 31 26 24 22 24 24 24 25 25 23 23 24 23 20 20 23 24 23 23 22 22 24 23 24 23 22 21 20
22 27 35 30 41 43 39 38 41 40 39 39 38 35 31 25 27 25 23 23 22 20 22 25 28 30 28 29 30 23 32 30 29 27 26 26 27 27 28 27 26 27 26
6 16 20 30 35 35 43 37 43 43 37 33 33 34 29 31 27 22 24 26 24 20 18 20 24 28 29 28 27 27 27 33 34 32 30 31 31 31 32 33 32 31 30
5 4 10 21 29 27 37 38 45 39 35 39 33 32 31 30 28 28 25 26 24 22 20 22 24 25 28 28 27 27 29 37 42 41 35 39 36 36 37 37 37 36 35
11 7 4 7 24 26 37 39 38 41 34 35 33 33 31 31 32 33 31 30 32 32 33 30 28 27 32 33 35 38 37 39 37 46 43 39 41 40 39 41 42 41 41
10 11 11 8 14 31 42 39 41 40 34 37 37 35 35 37 38 38 44 47 43 39 38 38 35 33 35 36 38 32 31 36 42 49 46 42 44 42 46 47 45 47 46
11 15 19 17 13 20 18 38 38 35 34 39 39 42 41 40 38 41 42 38 39 40 39 38 38 38 41 37 41 44 46 48 45 42 39 48 48 49 51 49 48 47 48
9 11 18 16 13 21 26 17 20 16 16 13 20 30 31 36 40 40 40 43 43 41 39 35 39 40 42 46 50 43 47 40 39 37 45 47 46 51 55 53 57 54 51
6 5 15 18 13 19 26 19 20 25 20 15 16 15 18 23 28 35 40 45 38 37 42 42 43 45 50 48 52 48 49 45 40 40 37 41 42 42 41 51 57 61 61
3 2 5 9 12 15 18 16 16 25 20 18 18 20 22 20 21 28 35 38 38 37 41 45 43 47 49 45 44 44 45 44 44 47 48 43 41 48 45 48 45 47 54
6 5 4 4 4 9 12 14 17 17 23 23 17 20 22 23 23 25 23 33 32 32 37 38 39 38 39 39 41 43 48 47 51 55 48 48 45 41 47 52 58 58 57
10 9 9 10 11 10 11 14 15 13 14 19 21 23 27 26 29 31 29 32 34 40 39 40 42 42 44 42 44 48 48 48 48 42 43 45 48 52 53 53 54 56 58
12 13 14 15 15 17 16 15 17 18 19 20 25 27 25 26 26 30 34 34 36 38 37 41 43 42 41 42 44 46 52 54 54 54 56 55 54 52 55 54 53 54 56
10 10 12 15 15 15 16 18 20 22 24 25 26 27 30 32 32 32 34 35 39 42 44 45 48 50 51 50 49 50 53 55 58 55 58 57 59 59 59 60 62 61 60
13 12 12 13 13 13 14 15 16 18 20 20 21 21 23 25 26 27 29 32 34 37 39 41 44 46 48 49 51 54 55 58 59 62 66 65 65 64 67 69 70 69 69
15 17 17 18 20 22 20 20 21 25 27 29 31 32 33 34 36 36 37 37 40 43 45 47 49 52 54 56 54 60 57 59 58 61 61 62 62 62 64 69 69 69 71
21 23 26 26 27 27 27 29 30 30 31 34 37 38 41 41 40 39 41 44 48 50 52 52 54 59 57 58 60 56 58 58 56 61 60 57 60 60 63 66 66 66 66
24 24 24 25 26 27 26 27 27 29 31 35 37 37 37 38 40 42 43 46 48 48 47 51 48 50 51 51 50 51 52 50 51 54 53 53 53 52 52 50 49 49 49

GFSMA_700_spd_087.txt.gz
Wind_Speed
28 29 28 27 25 24 21 23 27 43 32 29 27 26 25 21 26 22 19 20 20 19 18 15 14 14 13 15 13 14 14 15 14 13 13 11 9 8 8 9 9 9 9
26 29 27 27 24 24 20 20 32 34 33 30 29 30 30 28 23 22 18 20 20 19 18 16 15 15 15 15 14 15 16 16 16 15 15 13 12 10 10 10 10 11 10
24 27 28 25 24 25 24 24 28 35 32 32 29 29 29 27 24 21 20 21 20 18 18 15 15 15 15 14 15 16 16 16 16 16 15 15 13 13 13 13 12 13 12
22 25 26 25 25 22 25 26 32 39 32 31 29 31 29 27 25 22 23 19 19 20 18 14 16 16 16 17 18 18 18 17 16 15 14 14 14 15 15 15 14 15 15
20 25 26 27 27 22 25 22 35 37 31 32 32 28 30 26 23 22 23 21 21 20 17 15 16 18 18 19 19 20 19 19 18 16 16 16 16 16 16 17 18 18 17
21 24 27 29 29 28 28 27 28 37 33 31 29 29 29 29 26 25 23 22 22 20 19 15 18 19 19 20 21 20 20 19 17 17 17 18 18 18 17 18 18 17 17
23 26 28 29 32 29 30 35 26 34 29 32 30 34 30 29 25 24 22 21 21 20 19 17 19 19 19 20 20 20 20 19 18 18 19 19 18 18 19 19 19 18 17
26 29 31 32 32 31 34 34 32 29 34 37 39 34 33 30 27 24 22 23 20 20 19 19 19 19 19 20 20 20 20 19 19 19 20 21 21 21 21 20 21 20 20
26 30 32 34 37 33 36 37 40 36 33 36 38 34 33 31 26 25 25 24 21 20 19 17 20 20 20 19 22 23 22 18 19 22 25 24 25 25 24 23 23 22 22
21 23 27 32 38 39 38 43 42 40 35 43 35 32 32 26 29 26 25 23 20 18 18 17 21 24 26 23 24 24 21 22 26 29 27 27 28 28 28 27 27 28 26
17 15 18 33 38 37 39 40 50 39 36 36 37 31 33 28 24 25 22 25 22 21 19 21 23 24 26 26 27 27 26 24 26 30 32 29 31 33 32 31 33 33 32
17 13 12 12 24 33 37 41 39 39 40 35 33 36 32 30 26 22 13 18 21 23 23 22 23 23 23 25 26 27 28 28 28 28 32 35 38 40 38 37 42 38 37
16 13 10 7 19 27 27 30 43 40 40 36 36 34 33 30 26 24 24 19 14 18 25 25 25 25 24 26 27 27 29 29 31 35 38 40 36 38 44 48 43 44 45
13 12 13 8 12 17 24 32 40 41 39 38 33 34 31 32 32 33 30 32 31 26 31 32 33 34 35 32 31 29 32 34 35 37 37 37 39 43 46 42 42 47 47
12 12 10 12 9 18 16 20 26 36 43 41 37 37 38 35 34 35 33 33 36 36 39 40 38 42 39 41 37 40 41 43 43 42 45 47 45 44 40 39 40 47 51
7 9 11 14 11 10 19 26 29 36 39 41 40 37 37 39 39 39 42 39 41 37 39 39 37 36 35 31 37 40 43 43 43 45 48 46 43 43 41 43 48 53 57
6 6 6 10 12 10 14 16 19 31 25 27 24 18 28 41 37 28 30 33 35 38 39 34 32 33 37 41 44 45 46 49 53 51 53 52 50 42 40 40 45 47 48
5 3 4 10 12 10 10 21 15 15 20 16 14 18 15 17 20 21 22 24 29 31 38 40 32 34 35 31 34 41 41 42 42 40 39 39 40 44 48 48 49 49 47
7 5 5 7 8 9 9 13 21 15 18 22 18 17 17 19 20 23 23 23 27 25 28 36 33 30 31 32 34 37 37 39 42 44 45 44 42 44 45 42 44 47 49
11 9 7 7 9 10 12 13 15 15 18 19 19 18 20 18 21 22 24 29 27 30 30 33 35 35 37 35 36 36 36 36 37 37 40 42 45 46 52 50 53 55 56
16 14 12 12 12 9 10 12 14 15 15 13 13 17 20 20 26 27 29 30 31 35 33 34 35 35 35 39 41 41 44 46 46 51 53 51 50 53 56 57 59 61 57
18 17 15 15 13 12 12 13 16 19 20 22 24 25 26 26 28 30 30 29 33 36 36 38 42 45 44 45 42 43 45 46 48 51 52 53 56 59 61 61 63 62 64
19 18 16 14 13 13 13 15 18 21 23 25 27 28 30 30 32 32 29 27 30 32 36 39 42 44 48 50 51 48 50 55 58 61 56 61 56 63 61 58 62 62 67
20 19 17 16 15 14 13 14 17 19 20 22 23 25 26 27 28 33 35 36 38 41 40 44 44 45 49 53 53 55 57 56 55 54 57 59 60 55 57 59 61 63 62
22 21 22 23 22 21 22 22 24 25 28 28 30 33 34 35 36 37 39 40 40 43 44 45 46 49 47 52 52 46 51 56 56 58 57 56 57 56 54 54 55 54 54
25 27 26 25 24 24 25 25 27 29 31 33 33 36 36 38 40 42 42 44 43 45 47 49 51 53 55 54 51 48 44 42 41 41 39 39 40 41 42 41 42 43 44

GFSMA_700_spd_090.txt.gz
Wind_Speed
21 25 25 30 31 28 27 23 20 24 28 35 30 28 24 25 24 21 24 22 22 21 19 19 17 15 12 13 11 12 13 13 13 14 14 13 13 12 11 11 11 10 11
20 25 26 26 28 25 24 20 19 20 25 38 31 30 26 23 26 27 22 22 22 20 19 18 16 16 15 13 13 13 13 13 13 14 13 13 12 12 11 12 12 11 11
20 22 25 26 26 22 22 26 22 22 25 41 32 28 31 31 30 31 18 19 20 20 19 18 17 17 15 14 14 15 15 15 15 15 14 13 12 12 12 11 10 10 10
19 19 26 25 23 23 22 27 25 24 25 32 31 31 30 34 34 32 21 19 20 19 19 19 18 18 15 15 15 15 16 16 16 15 14 14 13 13 13 13 13 12 12
17 20 23 23 23 24 24 21 26 17 30 35 31 30 32 34 29 29 26 21 20 20 20 19 18 18 15 15 14 15 16 16 16 15 15 14 14 14 14 14 15 16 16
18 21 22 23 26 26 27 24 25 18 29 33 30 33 34 32 27 28 27 21 21 20 19 18 19 17 15 13 13 15 16 17 16 16 15 16 15 15 15 17 17 19 19
19 23 25 26 28 28 27 25 22 26 34 36 36 31 32 33 30 28 27 22 21 20 20 21 21 18 14 13 13 15 16 17 16 16 16 16 16 17 17 18 19 19 19
22 25 28 28 28 29 30 30 28 29 30 31 36 31 34 31 31 28 25 22 22 21 22 22 21 17 15 14 14 15 17 18 19 18 17 17 18 19 20 20 20 20 20
26 27 28 29 30 30 30 31 31 34 27 33 35 36 37 37 31 28 25 22 22 19 19 18 18 17 16 16 16 16 16 20 21 20 18 18 19 20 21 23 24 23 23
28 28 27 29 31 32 32 30 30 34 33 26 39 39 35 28 26 27 26 25 23 19 18 19 17 17 18 16 16 18 20 20 21 17 21 20 23 25 25 26 27 27 26
24 23 19 19 25 30 33 32 33 33 46 35 40 34 38 30 26 23 24 24 23 21 23 22 20 20 20 20 19 20 20 20 22 22 23 21 24 27 25 24 28 32 31
20 18 18 19 17 25 34 35 36 38 41 39 35 35 34 32 28 23 23 20 18 20 23 22 21 19 19 20 21 23 24 23 25 26 26 26 26 28 31 31 33 37 33
17 18 17 18 16 16 29 36 35 37 38 43 39 32 30 30 29 25 20 16 17 16 16 23 22 19 20 20 21 21 25 25 25 28 30 30 30 33 37 37 35 34 37
16 17 19 19 19 18 22 25 30 31 40 42 36 36 34 34 29 27 28 22 16 16 16 18 20 21 22 21 24 25 25 26 30 32 34 34 35 39 40 39 40 41 42
14 14 15 14 15 9 14 18 23 24 35 34 42 36 38 32 30 31 27 27 29 30 28 28 32 32 31 30 29 33 37 39 39 36 36 39 43 43 41 41 41 39 40
13 13 12 11 11 8 13 10 21 29 30 35 40 38 32 34 37 38 39 38 32 35 34 36 35 36 35 33 29 31 31 29 33 37 38 36 42 43 44 46 46 42 40
11 10 9 7 11 10 6 13 14 22 32 32 39 36 36 33 37 32 30 29 35 37 38 33 30 29 29 31 31 32 30 33 37 40 40 38 39 41 39 43 43 36 36
7 4 3 5 8 8 5 10 10 18 23 34 35 36 41 22 24 32 30 32 32 28 27 27 30 30 31 33 33 33 31 30 30 29 31 31 32 33 37 34 39 41 41
8 5 3 4 5 11 9 12 15 17 23 28 17 17 18 16 17 19 21 22 24 24 27 24 26 24 28 28 30 29 33 30 30 29 33 33 33 34 36 37 38 41 45
13 10 7 7 7 8 10 13 20 16 20 19 22 18 18 18 20 22 22 21 23 26 28 30 30 29 29 26 31 33 34 29 31 32 32 35 38 38 41 46 48 48 51
16 13 10 8 6 7 9 11 15 19 18 20 22 23 22 21 23 22 25 21 24 29 28 31 32 32 29 29 32 35 37 36 40 40 39 40 42 46 48 50 52 52 53
20 17 15 13 11 10 10 12 14 15 17 17 19 16 17 20 20 21 25 28 31 28 30 28 31 36 38 36 36 40 41 46 43 45 43 46 53 53 55 55 53 57 59
24 22 20 18 17 16 15 15 16 16 17 19 23 21 23 25 27 27 26 27 29 34 33 30 29 34 40 38 40 48 46 47 50 50 52 53 52 47 50 52 53 56 58
27 26 24 22 20 19 18 18 18 18 18 20 21 23 26 30 29 26 25 26 28 30 35 38 39 44 44 43 45 50 41 45 44 48 50 52 54 55 53 51 51 51 51
28 29 29 24 24 24 19 16 16 18 19 20 22 22 23 25 27 30 30 32 39 39 39 43 44 42 44 48 47 51 52 52 55 49 47 45 45 44 43 44 44 44 45
27 28 26 28 26 26 26 24 24 24 27 28 30 31 31 35 34 37 38 36 37 39 42 48 47 47 46 46 44 41 39 38 38 39 39 39 40 41 41 42 41 42 43

GFSMA_700_spd_096.txt.gz
Wind_Speed
16 18 20 23 24 24 23 27 27 27 28 24 26 28 23 28 25 25 26 23 22 24 22 20 19 17 16 15 15 14 13 13 12 11 10 9 9 9 9 10 11 11 10
16 18 19 21 22 24 22 26 27 25 20 23 17 27 27 29 27 26 27 28 26 24 26 24 20 18 17 17 16 15 14 13 12 11 10 10 10 10 11 11 11 11 10
17 20 19 20 21 23 23 24 27 26 26 24 24 15 19 31 30 30 29 28 27 23 24 23 21 19 18 17 16 16 15 14 13 12 11 11 12 12 12 11 11 11 11
18 21 20 19 21 23 27 25 24 25 27 25 24 26 23 33 33 32 33 30 25 25 24 24 22 20 18 17 16 16 15 15 13 13 12 13 13 12 11 11 11 10 10
19 21 20 19 19 22 26 24 24 24 27 28 23 24 27 35 35 34 34 30 22 19 22 25 22 21 18 17 17 17 16 15 15 15 15 15 15 14 13 12 12 12 12
21 20 20 19 18 20 23 25 24 25 27 24 28 28 32 37 39 36 34 29 24 22 24 25 23 20 19 18 18 16 16 16 17 18 17 17 17 15 13 13 13 13 13
22 21 21 20 18 21 22 24 27 25 25 26 23 26 25 38 40 38 36 31 27 27 25 25 24 22 20 20 19 17 17 18 18 18 18 18 17 15 15 15 15 14 14
23 22 22 22 20 21 23 25 28 28 26 28 24 14 25 37 45 39 39 33 30 27 26 25 24 22 23 22 20 19 19 19 19 20 19 19 17 16 16 15 15 15 15
24 24 23 23 23 22 24 26 28 31 28 27 26 25 22 42 41 37 39 35 29 27 25 25 25 24 24 22 21 21 20 20 20 20 20 19 19 18 17 17 17 17 16
25 24 25 25 24 23 24 27 29 31 33 29 26 24 25 43 43 40 38 35 28 26 25 27 26 26 25 23 22 21 21 20 20 20 21 21 21 20 20 19 18 17 18
25 24 26 26 24 23 23 22 25 29 29 33 31 34 29 39 47 45 35 34 28 28 26 25 26 26 25 24 23 23 22 21 21 21 22 23 23 23 22 20 19 19 19
24 23 26 26 23 20 20 19 23 26 30 33 32 32 31 38 47 41 32 27 22 27 26 26 25 24 23 23 23 23 23 24 25 25 26 24 25 25 24 22 23 24 26
22 24 26 23 18 19 21 23 24 23 28 32 35 35 32 35 44 42 31 27 24 28 28 26 25 24 22 22 22 23 24 24 25 27 24 25 27 28 28 27 27 28 31
21 24 24 18 17 21 24 25 25 27 29 28 34 37 41 35 31 38 35 33 26 26 26 26 26 24 21 24 22 22 20 21 21 22 24 24 27 29 31 32 31 31 33
21 21 22 17 19 23 24 27 30 33 30 33 37 40 34 38 34 38 37 29 34 26 25 21 16 17 23 24 23 24 23 24 23 25 28 32 29 27 29 31 32 34 36
18 20 20 17 21 23 23 25 25 26 30 34 35 38 39 41 41 37 35 33 32 35 35 34 24 23 25 26 27 27 29 27 33 37 34 26 23 27 32 39 39 41 38
15 20 19 19 20 22 21 18 19 20 24 28 33 39 40 39 42 46 37 41 40 38 39 39 31 32 32 27 27 28 28 29 24 21 23 28 29 29 30 30 32 34 39
15 20 18 16 18 21 19 15 11 18 18 22 23 32 33 36 45 47 37 34 38 30 27 31 34 36 32 39 32 32 28 26 21 30 36 34 31 29 28 32 31 34 33
17 21 17 15 16 18 16 16 12 14 15 24 26 24 26 25 51 49 41 40 33 31 33 34 31 37 35 36 35 33 28 27 28 27 27 29 28 31 32 34 34 34 40
20 19 18 14 14 13 14 15 15 14 9 10 13 26 25 31 39 42 36 42 36 32 33 41 37 37 34 30 28 27 27 25 21 27 27 31 31 35 35 32 37 39 40
20 17 19 15 13 12 12 16 19 14 14 10 14 18 21 25 37 35 36 40 28 31 35 32 35 34 31 29 27 23 24 26 29 28 30 32 34 34 39 40 37 41 41
25 21 20 18 15 13 10 11 14 15 17 18 17 20 24 29 32 32 30 38 30 23 25 23 23 26 24 27 30 28 31 32 35 34 32 33 40 38 43 40 46 48 49
23 25 23 21 19 16 14 14 14 18 20 20 19 24 24 21 24 27 26 25 27 30 24 26 25 26 29 30 28 31 35 31 36 37 37 42 44 41 43 49 50 49 52
26 28 28 24 23 22 20 19 18 19 22 24 25 26 26 26 26 27 29 27 27 28 27 27 28 28 31 32 33 35 35 36 35 37 37 41 47 51 48 46 44 43 44
30 29 30 32 27 26 24 22 24 25 24 25 26 27 29 30 28 29 30 31 29 30 33 35 31 41 36 39 38 35 38 40 40 42 46 40 38 38 38 38 40 42 44
31 32 30 30 29 29 27 26 25 27 28 29 30 29 28 33 30 27 27 29 32 32 32 35 36 37 36 37 38 38 39 41 40 37 35 33 34 37 39 40 43 44 45

GFSMA_700_spd_099.txt.gz
Wind_Speed
10 12 14 17 21 22 24 24 27 26 25 26 28 24 21 32 32 33 26 23 25 25 25 22 21 20 18 17 16 14 14 13 12 11 10 10 10 9 9 9 8 7 7
10 10 13 17 19 21 24 24 26 25 26 29 30 25 27 27 31 27 26 26 26 28 27 26 23 20 18 17 17 15 14 13 12 11 10 11 10 10 10 9 8 8 8
12 11 13 18 18 20 22 24 25 24 29 32 34 20 24 21 29 26 26 26 28 26 26 24 24 22 19 18 17 15 14 13 13 12 12 12 11 11 10 10 9 8 8
15 14 14 17 18 19 21 23 26 26 25 31 27 25 24 20 15 27 31 29 30 27 24 26 25 23 21 19 18 16 15 14 14 14 14 14 13 12 11 10 9 8 8
18 16 15 16 19 19 19 21 25 26 26 25 27 25 28 21 21 23 33 31 30 28 25 26 26 23 21 20 18 17 16 15 15 15 16 16 15 14 13 12 10 9 9
22 19 17 16 19 18 17 19 22 23 27 25 28 29 34 24 25 25 35 34 32 32 24 23 24 24 23 21 19 18 17 16 16 16 16 16 16 15 14 13 12 11 10
28 23 19 17 18 17 16 18 21 23 26 28 26 26 30 23 31 28 37 35 33 31 30 24 22 24 23 21 21 19 18 17 17 17 16 17 16 16 16 15 13 12 12
31 26 22 20 19 18 18 20 21 24 26 28 30 29 31 27 22 30 39 39 34 33 28 25 23 25 23 22 21 20 20 18 17 17 17 17 18 18 18 17 16 14 13
31 28 25 22 20 19 18 20 24 26 27 27 31 28 30 29 21 27 37 42 37 37 29 26 26 25 25 24 24 22 21 20 19 18 18 19 19 19 19 18 17 17 15
31 29 27 23 22 22 21 21 25 28 28 30 30 31 30 28 30 25 37 39 40 40 30 27 27 26 26 25 25 23 23 22 21 21 21 21 22 22 21 21 20 18 16
29 31 27 23 24 23 22 23 25 27 29 30 31 33 32 27 29 27 39 48 45 40 29 27 27 27 27 27 26 25 23 22 22 22 21 21 22 22 22 23 22 20 20
31 31 27 24 25 26 21 24 25 25 28 30 32 33 33 33 31 35 37 45 38 36 29 26 28 27 27 27 27 26 25 24 23 23 23 23 24 25 25 25 24 24 24
31 30 25 25 26 27 20 24 25 26 27 30 30 32 35 34 31 31 47 41 38 32 35 31 29 29 28 27 27 26 25 26 26 26 26 25 25 26 27 26 28 29 28
30 29 28 25 26 26 20 24 24 25 27 29 29 30 35 35 33 38 32 41 41 34 37 31 28 28 27 25 24 24 25 26 26 24 26 27 27 29 30 30 32 33 32
29 30 27 24 25 23 19 24 25 26 29 30 33 33 39 35 36 34 28 41 37 31 33 36 32 32 30 28 25 24 25 26 27 28 29 30 31 31 32 31 36 39 39
29 30 24 25 23 21 18 22 26 29 32 35 37 36 35 37 38 38 37 29 33 35 28 30 33 32 28 25 24 26 26 27 28 26 29 31 34 34 33 40 41 40 41
30 28 24 24 20 19 17 23 27 26 27 30 33 32 40 36 40 36 38 34 33 39 36 36 39 41 38 29 25 27 29 31 31 33 36 39 40 37 35 29 31 34 34
30 25 24 22 19 16 19 23 25 21 24 27 28 33 34 33 40 43 40 37 40 41 35 36 29 38 43 47 44 48 42 44 42 38 40 28 25 25 31 34 33 27 30
29 26 24 21 18 16 19 21 19 20 21 20 25 21 24 35 32 38 38 40 47 41 37 40 32 35 38 36 36 42 38 38 31 28 29 29 30 32 29 29 27 30 29
26 26 23 20 18 16 19 18 14 17 20 19 18 25 23 26 32 37 34 46 44 41 40 37 32 35 34 37 34 34 31 35 33 30 27 26 26 27 27 30 33 33 35
24 24 22 18 18 17 18 16 14 17 15 16 15 12 20 20 31 31 27 47 50 41 40 30 31 39 30 37 36 38 38 35 29 30 26 26 28 30 32 36 40 39 38
22 21 17 17 18 18 18 17 13 12 12 14 12 7 11 11 11 34 42 41 40 39 37 39 34 40 45 39 36 33 35 31 26 29 33 34 37 39 36 38 42 40 42
21 20 19 17 19 20 19 18 15 13 15 13 17 13 14 16 22 21 28 35 34 31 33 39 29 28 30 29 29 32 29 34 31 33 35 38 39 43 39 39 41 43 45
26 23 20 23 23 21 20 19 19 18 17 18 18 23 17 19 23 21 27 30 29 32 33 32 30 28 27 28 32 31 32 33 38 40 37 42 38 37 39 43 48 47 46
27 29 31 26 26 26 23 21 22 22 21 21 23 19 24 25 26 25 29 28 28 32 32 27 32 32 28 28 30 32 36 36 37 42 40 39 37 37 40 44 41 39 41
31 39 37 39 26 29 28 24 26 24 25 26 26 28 29 31 31 30 31 28 30 27 32 35 36 34 37 39 37 36 41 38 38 36 35 38 39 38 38 39 39 41 42

GFSMA_700_spd_102.txt.gz
Wind_Speed
11 11 10 10 12 15 19 21 22 23 23 23 24 22 27 27 32 26 21 28 26 24 27 26 22 22 18 17 17 15 14 13 11 11 11 10 10 11 11 10 9 8 7
15 11 10 9 11 13 17 20 22 24 24 26 26 23 29 22 25 29 31 34 29 26 27 29 25 23 21 19 17 16 15 14 12 12 11 12 12 12 11 10 9 8 7
19 13 12 10 11 13 16 18 21 24 26 26 21 28 28 27 33 26 30 32 25 28 28 26 24 23 21 19 18 15 15 14 14 13 13 14 13 13 13 12 11 10 9
22 18 15 13 13 13 15 18 19 24 26 26 20 20 33 32 20 17 28 30 28 26 29 25 24 23 22 21 18 17 16 15 15 14 14 14 14 13 13 12 11 10 9
25 22 19 16 15 14 15 16 17 23 26 29 27 26 26 27 28 18 20 28 28 28 28 28 26 25 24 23 21 18 17 16 16 15 15 14 14 13 14 12 11 10 10
29 26 23 20 17 15 15 15 15 20 23 26 27 26 22 24 23 20 19 17 31 30 29 29 26 25 25 23 22 20 18 18 16 16 15 15 15 14 14 13 13 12 10
34 30 27 24 21 17 14 16 17 20 22 23 27 29 23 24 32 24 24 22 28 35 32 31 27 24 25 23 23 22 20 19 18 17 16 16 16 16 16 16 14 13 13
36 34 31 27 24 20 17 16 19 20 21 23 26 27 28 24 22 28 24 23 25 37 35 33 28 25 23 23 23 23 21 20 19 18 18 18 18 18 18 18 17 15 14
38 33 32 30 27 24 21 17 20 23 22 22 25 26 29 31 27 26 27 24 29 38 37 35 28 27 24 24 25 26 24 21 22 21 21 20 19 19 18 18 17 16 16
39 36 31 30 30 26 24 20 21 25 24 25 25 28 29 29 27 29 25 21 27 37 35 37 30 28 26 25 26 25 24 23 23 22 22 22 20 20 20 20 19 19 18
34 28 26 31 31 28 27 24 22 25 26 26 26 27 27 29 28 31 26 23 21 35 41 36 35 29 28 27 27 26 25 24 23 22 23 23 22 23 23 22 21 21 20
35 28 27 32 32 29 28 26 24 25 27 24 25 28 29 29 30 30 24 24 28 32 47 46 39 30 29 29 27 26 27 26 25 25 25 24 25 24 24 23 22 23 23
37 30 30 33 32 29 29 27 26 26 27 27 28 29 30 31 33 30 32 29 28 29 43 38 35 30 29 29 28 29 31 29 28 27 27 27 28 26 25 25 25 26 27
35 32 28 32 30 31 30 28 26 25 27 28 28 30 32 31 31 33 34 31 28 33 44 45 38 35 31 29 27 28 30 29 29 29 30 30 29 28 28 28 29 30 30
35 34 31 33 32 30 30 28 26 23 26 26 28 30 32 32 33 39 37 33 33 34 42 36 36 41 34 30 27 29 30 30 30 30 31 31 31 31 31 31 32 32 32
36 33 33 33 32 29 29 26 25 23 26 26 26 30 34 35 36 38 33 32 33 31 33 42 36 34 32 29 30 29 29 29 29 29 30 31 32 31 32 32 32 32 31
35 35 35 32 29 29 27 25 24 23 25 23 26 30 35 36 37 37 36 32 35 32 30 37 35 29 34 32 34 34 33 31 33 29 31 33 31 31 31 32 33 34 36
35 33 34 31 29 28 26 24 23 22 23 22 20 28 30 29 36 38 31 36 34 31 33 32 32 31 35 41 35 34 37 34 33 32 39 34 35 33 39 36 40 38 37
30 34 32 29 29 26 24 23 21 21 20 18 22 25 26 34 35 35 40 40 36 35 38 36 39 38 38 37 44 42 34 38 39 35 37 41 44 43 42 40 35 36 38
30 29 28 29 27 24 22 22 20 19 15 19 22 25 25 23 25 20 29 38 35 39 35 39 43 32 33 30 30 35 43 45 49 49 49 51 38 35 36 37 35 30 31
34 31 30 28 23 21 22 21 19 19 16 17 19 21 17 19 21 17 22 30 36 37 39 48 42 33 39 31 35 36 38 40 40 37 40 36 39 39 29 33 32 32 33
24 23 24 23 20 20 21 20 19 20 15 12 16 13 12 11 12 19 26 21 32 39 31 47 37 39 42 35 36 46 40 39 40 42 37 37 34 30 34 33 36 38 38
23 20 21 20 18 18 19 18 20 21 17 13 10 12 13 8 10 13 6 20 29 32 36 39 37 35 26 28 35 40 40 41 38 34 38 35 33 31 34 35 38 38 41
18 24 25 21 20 19 17 17 20 23 21 16 16 12 17 13 11 15 17 13 25 28 28 33 30 31 34 40 33 34 33 33 34 35 34 38 38 38 40 42 42 40 39
20 21 21 22 20 20 20 18 19 22 24 22 19 20 15 15 15 17 19 23 25 26 39 33 35 36 36 33 29 29 30 30 34 34 35 39 41 46 44 45 40 40 38
25 20 17 19 24 28 26 23 26 25 25 23 22 21 23 19 18 20 23 25 24 28 30 31 34 35 30 33 36 37 36 32 36 39 41 42 44 42 40 36 35 38 38

GFSMA_700_spd_108.txt.gz
Wind_Speed
19 18 17 18 17 15 14 15 15 18 20 22 23 23 25 26 27 24 23 25 27 29 30 34 45 35 33 30 24 20 17 15 15 15 14 14 13 13 13 13 14 14 15
23 21 20 19 19 17 16 15 15 17 19 22 25 25 26 27 30 24 25 26 27 32 39 34 29 35 42 31 25 20 17 17 16 16 15 14 15 15 14 14 14 14 14
28 25 23 22 20 20 18 15 14 17 21 23 26 27 27 27 29 23 27 29 30 27 36 41 37 36 28 31 25 22 18 19 17 17 16 15 16 16 15 15 15 15 15
30 31 28 25 23 22 20 17 15 17 20 23 25 26 26 29 28 24 22 29 27 33 34 37 38 29 33 31 26 23 20 19 18 18 17 17 17 16 17 17 16 16 15
32 33 32 29 27 25 24 20 17 17 20 20 23 25 26 29 28 30 26 24 31 29 37 28 29 29 32 30 26 23 20 19 19 19 19 18 19 18 18 18 18 17 16
34 33 35 35 32 29 26 23 20 18 20 19 22 23 26 28 30 33 30 24 27 26 20 26 34 29 29 25 27 22 20 20 20 20 20 20 20 20 20 20 20 19 19
40 38 37 39 37 33 30 26 23 22 21 20 22 22 25 26 30 33 31 25 26 20 8 20 27 25 28 31 23 22 22 23 21 21 21 21 21 21 21 21 20 20 19
44 40 39 39 41 39 35 31 27 25 23 22 24 23 27 26 28 30 28 30 18 17 14 14 17 22 22 28 27 25 24 23 23 23 23 23 23 23 23 23 21 21 21
48 45 41 40 41 42 38 34 31 29 27 24 23 26 27 28 26 25 25 22 24 25 19 19 17 19 30 28 33 29 28 26 25 25 25 25 25 24 24 23 23 24 23
57 50 47 43 41 42 43 39 36 33 31 28 26 26 28 28 28 25 22 25 27 23 22 20 22 21 26 36 31 32 27 25 27 27 26 27 26 26 25 26 26 26 25
56 52 50 46 44 42 43 43 40 37 35 32 29 27 27 29 28 28 28 23 25 27 26 23 24 26 29 39 38 35 30 28 31 29 29 29 29 28 28 28 28 28 26
51 49 50 48 44 43 41 40 40 38 37 34 32 30 28 28 27 27 26 26 23 26 25 26 28 30 26 35 44 39 33 30 32 32 31 32 31 30 30 30 30 30 29
42 46 49 49 48 43 40 41 40 37 39 36 34 31 29 30 28 28 26 27 28 29 29 29 27 28 23 34 38 41 35 32 33 34 34 35 33 32 32 32 32 32 31
42 42 37 43 47 45 44 41 37 35 36 37 35 32 30 30 30 28 29 28 33 32 29 29 30 28 27 30 41 42 39 35 34 36 36 36 34 33 33 33 33 33 32
44 45 44 40 44 45 43 40 40 42 43 39 36 32 32 30 31 31 31 31 32 35 37 30 32 30 28 31 32 42 45 36 35 38 38 37 36 35 36 34 34 33 33
40 46 48 46 45 45 41 40 34 34 40 39 35 32 32 31 30 32 30 31 34 36 40 35 34 30 29 33 36 38 48 45 39 38 38 37 36 36 36 35 35 35 36
45 41 45 49 45 47 47 41 34 35 38 35 34 33 31 30 30 30 31 35 37 37 40 38 34 36 32 33 33 40 36 40 47 40 41 40 38 37 37 38 36 35 34
50 46 42 45 44 45 45 42 32 35 35 34 33 31 30 29 30 32 34 36 37 35 42 40 39 40 34 30 28 42 41 37 40 43 40 38 38 37 38 35 37 35 35
39 41 43 44 42 44 43 42 33 31 33 34 32 31 29 29 30 31 32 31 32 36 35 39 37 40 34 32 30 41 42 42 37 38 37 37 36 37 37 35 37 36 35
33 38 40 40 42 41 40 36 34 37 35 33 32 30 27 28 30 30 27 31 32 30 36 33 35 37 36 34 37 44 47 45 44 42 39 38 37 34 34 37 35 35 37
33 32 33 39 42 40 42 36 37 43 38 33 32 27 26 27 28 28 27 32 36 37 31 35 34 39 36 42 37 44 46 39 43 45 41 41 38 39 38 37 43 38 40
29 28 36 39 39 41 38 39 38 44 39 35 30 27 25 25 26 25 28 26 28 28 28 35 31 40 42 37 43 41 43 34 41 45 39 40 45 43 42 41 42 42 45
33 38 36 46 40 46 45 42 38 45 39 34 28 26 26 24 23 20 21 23 25 23 30 18 23 25 37 36 40 41 43 36 38 37 47 43 43 49 47 42 42 46 47
32 41 49 39 37 44 40 43 44 43 36 31 29 28 25 25 23 22 23 23 20 15 16 24 21 24 31 24 22 38 44 36 38 42 39 51 52 51 52 53 55 49 46
21 28 32 38 29 29 26 32 35 35 32 28 28 28 28 26 27 24 24 22 22 21 17 18 25 31 28 20 29 27 35 48 34 37 41 44 50 52 45 47 48 50 51
20 25 25 28 30 30 35 30 25 22 22 22 24 23 25 25 25 25 24 23 21 19 20 15 15 15 23 21 27 34 31 33 36 36 33 38 39 41 45 47 45 47 47

GFSMA_700_spd_114.txt.gz
Wind_Speed
22 21 19 19 17 18 17 18 17 17 16 16 18 19 18 20 21 23 22 24 24 23 23 21 17 21 26 24 31 28 27 25 23 21 19 18 17 15 15 15 15 16 17
25 24 22 21 20 20 18 18 19 19 18 16 17 18 19 19 23 24 25 25 26 26 22 24 20 23 24 28 32 28 29 27 25 21 19 19 17 17 16 16 16 18 19
29 29 26 24 23 23 22 20 20 20 20 18 16 17 18 20 22 24 26 28 27 26 24 22 21 26 31 30 27 33 31 30 28 23 21 20 18 18 17 17 18 19 20
33 32 30 28 28 27 26 24 22 22 21 20 18 16 18 20 22 23 25 29 28 25 26 29 26 29 28 30 31 30 37 35 29 25 21 20 20 19 19 18 20 21 21
39 38 35 33 32 32 32 29 26 25 24 22 21 19 18 20 19 21 23 25 29 26 27 29 29 34 29 33 36 33 39 39 31 27 23 21 21 21 19 19 21 22 22
41 41 41 38 37 35 32 34 32 26 27 25 25 23 21 19 19 19 21 23 25 25 27 27 31 35 31 30 32 26 37 40 34 27 23 22 22 22 20 21 22 23 22
45 43 42 45 40 40 36 35 35 33 30 29 29 26 25 21 19 19 21 23 24 24 26 28 25 24 21 19 21 23 35 41 35 26 23 23 22 23 21 22 23 24 23
47 51 47 49 47 45 42 40 39 37 36 33 33 30 28 25 22 19 19 21 23 25 24 26 25 24 20 17 19 23 39 42 32 29 26 24 23 23 23 24 25 25 24
53 56 51 52 51 50 49 46 43 40 38 39 38 34 32 28 25 22 21 20 21 23 23 25 22 21 21 18 15 20 35 31 35 32 29 27 24 24 24 25 27 27 27
50 53 55 56 55 52 51 49 47 45 42 42 43 39 35 33 29 26 25 22 21 21 21 23 21 22 23 19 14 13 35 29 33 35 29 27 25 27 26 28 29 29 28
57 53 57 53 59 60 56 51 52 50 48 44 43 44 39 36 32 29 28 25 25 22 21 22 24 22 22 20 16 13 16 29 32 35 31 27 26 29 29 29 30 30 29
57 60 53 55 53 54 54 54 52 51 51 48 44 45 44 41 34 33 29 28 28 25 25 22 23 23 23 22 21 18 20 19 25 30 31 29 27 30 32 31 32 31 31
55 58 57 52 55 52 52 52 48 50 51 53 48 44 46 44 39 35 33 30 28 29 26 22 21 23 24 24 23 22 23 23 24 31 37 33 30 30 35 34 33 33 34
55 57 59 60 54 52 53 52 47 46 53 54 50 48 48 47 43 39 36 31 29 29 28 26 20 22 23 25 25 26 23 25 23 33 40 40 36 33 34 35 35 36 37
60 59 57 58 58 49 54 57 52 48 54 53 49 46 45 46 54 41 37 31 28 28 28 29 25 23 26 28 28 29 27 27 27 23 36 40 40 38 35 36 37 39 39
55 57 53 50 50 53 55 57 52 49 51 52 51 47 42 45 46 41 26 26 28 29 31 28 24 24 22 23 26 30 31 28 28 28 27 37 42 43 43 36 39 41 40
42 49 47 48 48 50 51 52 49 48 49 49 48 45 42 54 32 31 34 30 30 30 34 31 26 22 22 23 24 25 28 31 31 28 29 31 40 44 44 40 41 41 40
30 40 44 46 47 47 47 45 47 47 46 46 42 41 41 35 33 39 43 34 33 34 36 35 28 26 26 28 29 30 31 32 31 31 30 29 42 44 47 48 47 40 41
32 38 44 46 47 47 45 41 42 43 43 42 41 44 41 41 41 40 39 42 37 38 35 30 29 30 34 33 31 32 33 33 37 34 31 29 35 42 48 46 46 44 43
39 49 44 45 44 41 42 37 42 42 44 41 40 41 41 41 38 39 42 38 38 37 35 30 30 31 34 32 35 35 31 30 33 31 34 31 31 40 43 42 43 46 51
27 22 46 33 37 37 39 34 35 44 49 46 43 43 42 42 44 38 36 34 34 34 33 33 32 32 32 34 35 36 37 32 37 34 33 32 38 40 43 42 46 43 49
13 16 20 34 34 40 28 28 32 34 38 42 45 48 46 42 39 40 35 32 33 34 34 33 32 30 29 32 33 28 32 31 32 33 36 38 36 39 45 46 38 46 47
9 16 16 20 25 29 31 34 35 35 36 39 42 47 42 39 39 38 33 32 32 34 35 32 30 29 28 29 27 29 31 31 32 28 31 36 36 41 47 45 33 45 45
17 12 21 17 21 22 21 24 32 36 36 38 43 51 41 43 45 45 39 31 33 36 35 34 29 27 26 22 22 25 22 25 21 25 30 34 35 41 49 49 41 43 41
10 9 16 16 29 27 28 27 27 42 36 48 45 52 44 39 43 45 44 34 40 36 36 32 31 29 29 28 26 22 21 19 20 29 30 29 33 42 49 44 45 43 47
19 12 10 7 21 29 33 38 44 39 48 52 48 48 47 40 42 42 40 38 37 34 33 31 31 32 30 25 24 22 26 26 31 21 24 24 32 45 49 53 43 40 46

GFSMA_700_spd_117.txt.gz
Wind_Speed
23 21 21 19 19 18 17 16 16 16 16 15 16 14 13 14 19 18 16 17 15 19 17 17 20 17 19 19 23 25 26 28 25 24 24 21 19 17 15 14 14 14 16
27 26 24 22 21 20 20 19 17 17 18 18 16 14 13 14 14 17 19 18 19 18 18 18 20 20 20 17 22 28 27 25 32 27 27 24 21 19 18 16 15 15 17
28 29 28 26 24 24 24 21 20 20 20 19 18 15 14 15 15 16 20 20 19 19 19 18 20 22 20 23 24 27 24 26 36 31 30 26 22 20 20 18 17 17 18
31 31 32 31 29 29 28 26 23 22 21 21 19 18 16 15 15 17 19 19 19 20 20 20 22 24 28 26 27 25 24 26 25 33 31 27 23 21 21 19 18 19 19
35 35 35 34 32 33 32 29 27 26 24 23 22 20 19 17 15 16 18 17 17 16 19 21 22 25 26 31 33 30 29 29 26 38 34 29 25 22 23 21 19 20 20
38 39 39 37 35 37 36 33 31 29 27 26 26 24 24 20 19 16 16 17 15 13 16 19 21 23 24 24 24 27 30 32 34 42 37 32 26 23 24 23 21 21 22
37 41 44 43 40 41 39 38 34 32 30 29 30 30 29 25 22 20 17 15 16 14 15 19 21 22 24 28 26 25 23 29 30 45 41 33 28 26 26 24 23 22 23
44 43 44 46 44 48 44 41 39 35 33 33 33 32 33 31 27 24 20 17 17 16 14 18 21 23 23 25 20 21 19 21 29 45 41 32 29 28 27 25 24 24 24
47 46 47 49 48 51 50 44 40 38 37 36 37 35 36 36 31 28 25 21 19 19 16 17 20 22 23 23 21 17 16 23 27 41 39 30 29 27 24 24 25 26 26
48 50 52 53 49 51 49 52 47 43 42 40 39 38 35 36 37 34 30 26 24 21 20 19 19 21 22 23 24 20 14 22 40 38 35 35 29 29 25 26 27 28 27
47 49 51 53 55 55 57 52 46 42 46 44 43 42 40 38 38 39 36 31 28 23 22 21 21 21 22 22 22 20 16 19 32 43 37 36 31 31 28 28 29 29 29
47 50 53 55 55 54 51 52 54 52 49 48 49 46 44 42 38 39 39 36 30 26 25 25 22 21 22 22 21 20 17 15 12 24 28 28 34 32 31 31 30 30 30
48 50 52 56 58 57 55 49 50 48 49 47 50 49 47 47 41 36 40 40 37 31 27 26 22 21 19 22 22 22 20 20 19 13 15 31 37 36 31 31 31 31 31
49 51 54 56 57 61 60 54 47 46 45 42 47 50 50 48 43 38 39 40 37 35 31 27 24 22 20 19 20 21 22 21 20 21 20 22 27 32 33 31 31 32 33
51 51 52 58 60 60 61 59 54 48 48 44 44 47 50 50 44 40 38 39 42 38 35 29 25 21 21 23 26 24 24 25 25 24 26 25 28 38 39 37 32 33 34
48 48 48 53 59 63 63 58 52 55 59 48 46 44 47 48 45 43 38 38 44 37 37 32 26 22 22 25 27 26 26 25 26 27 27 27 23 33 39 40 38 35 35
41 36 39 46 57 61 64 58 52 51 52 50 50 48 45 43 46 41 42 41 42 54 42 28 26 26 23 23 22 23 23 24 25 26 27 27 25 23 36 38 43 43 41
32 33 30 31 40 53 60 55 48 51 50 52 51 46 42 46 45 45 42 40 41 37 28 24 28 29 25 25 26 29 27 26 27 27 28 26 27 26 29 39 39 41 47
29 30 29 31 32 41 50 45 45 48 50 46 43 42 41 42 42 44 40 34 33 28 30 30 33 30 27 30 29 31 31 31 27 28 28 30 29 31 30 33 37 43 45
35 34 39 38 32 38 46 47 46 45 43 40 38 40 40 40 41 40 38 35 31 31 31 33 37 32 31 34 33 33 31 31 31 29 27 28 35 33 29 31 36 41 43
28 39 28 29 42 45 45 47 45 43 38 36 39 40 40 38 38 37 36 33 31 32 31 36 38 32 34 32 33 31 32 31 32 31 32 30 31 33 35 36 37 32 38
19 14 19 22 21 42 46 43 39 43 39 38 37 39 37 34 36 36 36 36 38 40 38 35 31 34 33 33 32 30 29 29 28 25 33 31 31 33 34 37 37 40 38
12 18 12 13 11 23 45 42 39 38 32 33 38 39 39 38 37 39 40 39 41 37 35 27 32 33 32 32 29 28 26 23 21 27 29 28 33 36 39 38 40 37 39
8 14 12 3 15 12 6 18 26 23 27 30 34 35 37 41 40 44 43 40 39 38 38 32 33 30 31 30 28 27 23 21 25 27 29 27 37 33 35 34 41 38 46
22 21 9 7 7 7 15 20 19 24 25 28 34 35 44 42 44 48 49 48 44 45 43 35 34 30 31 31 30 29 26 25 20 24 30 27 26 30 36 37 38 36 45
36 30 24 21 11 5 11 15 16 21 24 31 29 41 48 44 57 49 50 53 47 44 48 45 37 31 30 31 32 29 27 25 24 24 23 23 24 32 34 39 36 36 44